Location: Mactaquac Provincial Park
(45.9573°N, 66.8897°W)
Time: 11:51:59
(UTC-03:00)

Cosmos 1867 - Visible Passes

Search period start: 27 April 2017 00:00
Search period end: 07 May 2017 00:00
Orbit: 777 x 799 km, 65.0° (Epoch: 25 April)

Date Brightness Start Highest point End Pass type
(mag) Time Alt. Az. Time Alt. Az. Time Alt. Az.
27 Apr 3.9 21:09:55 10° NNW 21:15:20 58° NE 21:20:35 10° SE visible
27 Apr 5.2 22:54:08 10° WNW 22:58:34 26° WSW 23:01:17 17° SSW visible
28 Apr 4.8 22:22:11 10° NW 22:27:04 34° WSW 22:30:53 15° S visible
29 Apr 4.4 21:50:20 10° NW 21:55:32 46° WSW 22:00:33 11° S visible
30 Apr 4.0 21:18:34 10° NW 21:23:58 61° WSW 21:29:17 10° SSE visible
01 May 6.0 22:32:42 10° W 22:35:03 13° WSW 22:37:25 10° SW visible
02 May 5.9 22:00:05 10° WNW 22:03:38 18° WSW 22:07:11 10° SSW visible
03 May 5.6 21:27:53 10° WNW 21:32:11 24° WSW 21:36:28 10° SSW visible
